Weather History for KHBR - March, 2013

Change the Weather History Date:

Thursday, March 28, 2013

  Actual Average Record
Temperature  
Mean Temperature 62 °F -  
Max Temperature 73 °F 64 °F - (-1)
Min Temperature 50 °F 40 °F - (-1)
Degree Days  
Heating Degree Days 4    
Growing Degree Days 12 (Base 50)    
Moisture  
Dew Point 47 °F    
Average Humidity 62    
Maximum Humidity 78    
Minimum Humidity 43    
Precipitation  
Precipitation 0.00 in - - ()
Sea Level Pressure  
Sea Level Pressure 30.03 in    
Wind  
Wind Speed 15 mph (South)    
Max Wind Speed 21 mph    
Max Gust Speed 25 mph    
Visibility 10 miles    
Events      
Averages and records for this station are not official NWS values.
T = Trace of Precipitation, MM = Missing Value Source: NWS Daily Summary

Daily Weather History Graph

Daily Weather History Graph

Search for Another Location

Airport or City:

Trip Planner

Search our weather history database for the weather conditions in past years. The results will help you decide how hot, cold, wet, or windy it might be!

Date:

Astronomy

Mar. 28, 2013 Rise Set
Actual Time 7:28 AM CDT 7:54 PM CDT
Civil Twilight 7:02 AM CDT 8:19 PM CDT
Nautical Twilight 6:33 AM CDT 8:49 PM CDT
Astronomical Twilight 6:02 AM CDT 9:20 PM CDT
Moon 9:42 PM CDT 8:01 AM CDT
Length of Visible Light 13h 17m
Length of Day
12h 26m
Full, 98% of the Moon is Illuminated
Mar 28
Full
Apr 2
Last Quarter
Apr 10
New
Apr 18
First Quarter
Apr 25
Full

Hourly Weather History & Observations

Time (CDT) Temp. Dew Point Humidity Pressure Visibility Wind Dir Wind Speed Gust Speed Precip Events Conditions
12:53 AM 55.9 °F 39.9 °F 55% 30.03 in 10.0 mi South 17.3 mph - N/A   Clear
1:53 AM 54.0 °F 39.9 °F 59% 30.03 in 10.0 mi South 13.8 mph - N/A   Clear
2:53 AM 53.1 °F 41.0 °F 64% 30.03 in 10.0 mi South 15.0 mph - N/A   Clear
3:53 AM 52.0 °F 42.1 °F 69% 30.01 in 10.0 mi South 15.0 mph - N/A   Clear
4:53 AM 51.1 °F 42.1 °F 71% 30.02 in 10.0 mi South 15.0 mph - N/A   Clear
5:53 AM 51.1 °F 42.1 °F 71% 30.02 in 10.0 mi South 13.8 mph - N/A   Clear
6:53 AM 51.1 °F 43.0 °F 74% 30.04 in 10.0 mi South 13.8 mph - N/A   Clear
7:53 AM 50.0 °F 43.0 °F 77% 30.07 in 10.0 mi South 13.8 mph - N/A   Clear
8:53 AM 53.1 °F 44.1 °F 71% 30.07 in 10.0 mi South 18.4 mph - N/A   Clear
9:53 AM 55.0 °F 46.0 °F 72% 30.08 in 10.0 mi South 20.7 mph - N/A   Clear
10:53 AM 59.0 °F 48.0 °F 67% 30.08 in 10.0 mi South 18.4 mph - N/A   Clear
11:53 AM 64.9 °F 50.0 °F 58% 30.08 in 10.0 mi South 18.4 mph 23.0 mph N/A   Clear
12:53 PM 66.9 °F 50.0 °F 54% 30.06 in 10.0 mi SSW 15.0 mph 23.0 mph N/A   Clear
1:53 PM 69.1 °F 51.1 °F 53% 30.05 in 10.0 mi South 11.5 mph 20.7 mph N/A   Partly Cloudy
2:53 PM 72.0 °F 51.1 °F 48% 30.01 in 10.0 mi South 18.4 mph 23.0 mph N/A   Clear
3:53 PM 73.9 °F 50.0 °F 43% 29.99 in 10.0 mi South 18.4 mph 25.3 mph N/A   Clear
4:53 PM 73.0 °F 50.0 °F 44% 29.97 in 9.0 mi South 18.4 mph 23.0 mph N/A   Clear
5:53 PM 73.0 °F 51.1 °F 46% 29.97 in 10.0 mi South 15.0 mph 21.9 mph N/A   Partly Cloudy
6:53 PM 71.1 °F 50.0 °F 47% 29.98 in 10.0 mi South 12.7 mph - N/A   Partly Cloudy
7:53 PM 66.9 °F 50.0 °F 54% 29.99 in 10.0 mi South 9.2 mph - N/A   Clear
8:53 PM 64.0 °F 51.1 °F 63% 30.01 in 10.0 mi SE 9.2 mph - N/A   Clear
9:53 PM 62.1 °F 51.1 °F 67% 30.03 in 10.0 mi SE 11.5 mph - N/A   Clear
10:53 PM 61.0 °F 52.0 °F 72% 30.04 in 10.0 mi SSE 13.8 mph - N/A   Clear
11:53 PM 60.1 °F 53.1 °F 78% 30.03 in 10.0 mi SSE 13.8 mph - N/A   Clear